Location: Unspecified
(0.0000°N, 0.0000°E)
Time: 01:59:30
(UTC+00:00)

XW-2D - Pass Details

Date: 13 December 2017
Orbit: 511 x 530 km, 97.5° (Epoch: 17 January)

Event Time Altitude Azimuth Distance (km) Brightness Sun altitude
Rises 04:49:16 0° 46° (NE) 2,652 ? -14.9°
Reaches altitude 10° 04:52:30 10° 76° (ENE) 1,764 ? -14.1°
Maximum altitude 04:54:06 12° 101° (ESE) 1,617 ? -13.8°
Drops below altitude 10° 04:55:44 10° 127° (SE) 1,763 ? -13.4°
Sets 04:58:56 0° 157° (SSE) 2,650 ? -12.7°
